Weather History for Silver City, NM

Change the Weather History Date:

Tuesday, January 17, 2012

  Actual Average (KDMN) Record (KDMN)
Temperature  
Mean Temperature 40 °F 42 °F  
Max Temperature 51 °F 57 °F 77 °F (1971)
Min Temperature 30 °F 27 °F 12 °F (1964)
Degree Days  
Heating Degree Days 24    
Moisture  
Dew Point 30 °F    
Average Humidity 72    
Maximum Humidity 100    
Minimum Humidity 30    
Precipitation  
Precipitation 0.00 in 0.02 in 0.23 in (1962)
Month to date precipitation 0.31  
Year to date precipitation 0.31  
Sea Level Pressure  
Sea Level Pressure 30.24 in    
Wind  
Wind Speed 10 mph (NW)    
Max Wind Speed 18 mph    
Max Gust Speed 24 mph    
Visibility 10 miles    
Events Thunderstorm    
T = Trace of Precipitation, MM = Missing Value Source: NWS Daily Summary

Daily Weather History Graph

Daily Weather History Graph

Search for Another Location

Airport:

Trip Planner

Search our weather history database for the weather conditions in past years. The results will help you decide how hot, cold, wet, or windy it might be!

Date:

Astronomy

Jan. 17, 2012 Rise Set
Actual Time 7:14 AM MST 5:31 PM MST
Civil Twilight 6:47 AM MST 5:57 PM MST
Nautical Twilight 6:17 AM MST 6:27 PM MST
Astronomical Twilight 5:48 AM MST 6:57 PM MST
Moon 1:39 AM MST (1/17) 12:25 PM MST (1/17)
Length of Visible Light 11h 09m
Length of Day
10h 16m
Waning Crescent, 34% of the Moon is Illuminated
Jan 17
Waning Crescent
Jan 23
New
Jan 30
First Quarter
Feb 7
Full
Feb 14
Last Quarter

Hourly Weather History & Observations

Time (MST) Temp. Windchill Dew Point Humidity Pressure Visibility Wind Dir Wind Speed Gust Speed Precip Events Conditions
12:15 AM 37.4 °F 29.8 °F 35.6 °F 93% 30.16 in 10.0 mi WNW 11.5 mph - N/A   Mostly Cloudy
12:35 AM 37.4 °F 29.3 °F 35.6 °F 93% 30.17 in 10.0 mi WNW 12.7 mph - N/A   Mostly Cloudy
12:55 AM 37.4 °F 29.3 °F 35.6 °F 93% 30.16 in 10.0 mi NW 12.7 mph - N/A   Mostly Cloudy
1:15 AM 37.4 °F 29.8 °F 33.8 °F 87% 30.16 in 10.0 mi NW 11.5 mph - N/A   Scattered Clouds
1:35 AM 37.4 °F 29.8 °F 33.8 °F 87% 30.16 in 10.0 mi NW 11.5 mph - N/A   Partly Cloudy
1:55 AM 37.4 °F 29.8 °F 33.8 °F 87% 30.16 in 10.0 mi NW 11.5 mph - N/A   Partly Cloudy
2:35 AM 35.6 °F 28.6 °F 32.0 °F 87% 30.17 in 10.0 mi NW 9.2 mph - N/A   Partly Cloudy
2:55 AM 35.6 °F 28.0 °F 32.0 °F 87% 30.17 in 10.0 mi NW 10.4 mph - N/A   Scattered Clouds
3:15 AM 35.6 °F 29.9 °F 32.0 °F 87% 30.18 in 10.0 mi NNW 6.9 mph - N/A   Partly Cloudy
3:35 AM 32.0 °F 24.8 °F 32.0 °F 100% 30.18 in 10.0 mi NNW 8.1 mph - N/A   Clear
3:55 AM 32.0 °F 24.2 °F 30.2 °F 93% 30.18 in 10.0 mi NNW 9.2 mph - N/A   Partly Cloudy
4:15 AM 32.0 °F 25.6 °F 32.0 °F 100% 30.18 in 10.0 mi North 6.9 mph - N/A   Partly Cloudy
4:35 AM 32.0 °F 24.8 °F 32.0 °F 100% 30.18 in 10.0 mi North 8.1 mph - N/A   Clear
5:15 AM 32.0 °F 25.6 °F 32.0 °F 100% 30.19 in 10.0 mi NNW 6.9 mph - N/A   Mostly Cloudy
5:35 AM 32.0 °F 25.6 °F 30.2 °F 93% 30.20 in 10.0 mi NNW 6.9 mph - N/A   Scattered Clouds
5:55 AM 32.0 °F 25.6 °F 32.0 °F 100% 30.20 in 10.0 mi North 6.9 mph - N/A   Clear
6:15 AM 32.0 °F 25.6 °F 30.2 °F 93% 30.20 in 10.0 mi NNW 6.9 mph - N/A   Clear
6:35 AM 32.0 °F 26.4 °F 28.4 °F 87% 30.21 in 10.0 mi NW 5.8 mph - N/A   Clear
7:15 AM 32.0 °F 25.6 °F 28.4 °F 87% 30.22 in 10.0 mi NW 6.9 mph - N/A   Clear
8:15 AM 35.6 °F 29.9 °F 32.0 °F 87% 30.25 in 10.0 mi NW 6.9 mph - N/A   Clear
8:35 AM 37.4 °F 32.1 °F 33.8 °F 87% 30.26 in 10.0 mi WNW 6.9 mph - N/A   Clear
8:55 AM 39.2 °F 35.0 °F 35.6 °F 87% 30.27 in 10.0 mi West 5.8 mph - N/A   Clear
9:15 AM 41.0 °F 36.4 °F 35.6 °F 81% 30.27 in 10.0 mi WNW 6.9 mph - N/A   Clear
9:35 AM 44.6 °F 40.2 °F 35.6 °F 71% 30.28 in 10.0 mi WNW 8.1 mph - N/A   Clear
9:55 AM 44.6 °F 38.8 °F 35.6 °F 71% 30.28 in 10.0 mi NW 11.5 mph 16.1 mph N/A   Clear
10:15 AM 46.4 °F 40.1 °F 33.8 °F 62% 30.28 in 10.0 mi WNW 15.0 mph 19.6 mph N/A   Clear
10:35 AM 48.2 °F - 33.8 °F 58% 30.28 in 10.0 mi NW 18.4 mph 24.2 mph N/A   Clear
11:15 AM 48.2 °F - 32.0 °F 54% 30.28 in 10.0 mi WNW 13.8 mph 21.9 mph N/A   Clear
11:35 AM 48.2 °F - 32.0 °F 54% 30.27 in 10.0 mi WNW 17.3 mph 20.7 mph N/A   Clear
11:55 AM 48.2 °F - 32.0 °F 54% 30.26 in 10.0 mi WNW 12.7 mph 24.2 mph N/A   Clear
12:35 PM 50.0 °F - 32.0 °F 50% 30.23 in 10.0 mi WNW 16.1 mph 20.7 mph N/A   Clear
12:55 PM 50.0 °F - 30.2 °F 47% 30.23 in 10.0 mi WNW 16.1 mph - N/A   Clear
1:15 PM 50.0 °F - 26.6 °F 40% 30.22 in 10.0 mi WNW 15.0 mph 20.7 mph N/A   Clear
1:35 PM 51.8 °F - 32.0 °F 47% 30.22 in 10.0 mi NW 12.7 mph 17.3 mph N/A   Partly Cloudy
1:55 PM 51.8 °F - 30.2 °F 44% 30.21 in 10.0 mi West 11.5 mph 19.6 mph N/A Thunderstorm Thunderstorm
2:15 PM 51.8 °F - 26.6 °F 38% 30.22 in 10.0 mi West 15.0 mph 21.9 mph N/A   Clear
2:55 PM 51.8 °F - 21.2 °F 30% 30.22 in 10.0 mi WNW 17.3 mph 21.9 mph N/A   Clear
3:35 PM 51.8 °F - 26.6 °F 38% 30.23 in 10.0 mi West 15.0 mph 21.9 mph N/A   Clear
3:55 PM 51.8 °F - 26.6 °F 38% 30.24 in 10.0 mi West 15.0 mph 18.4 mph N/A   Clear
4:15 PM 50.0 °F - 26.6 °F 40% 30.24 in 10.0 mi West 12.7 mph - N/A   Clear
4:35 PM 50.0 °F - 26.6 °F 40% 30.24 in 10.0 mi West 12.7 mph 19.6 mph N/A   Clear
4:55 PM 50.0 °F - 28.4 °F 43% 30.24 in 10.0 mi West 12.7 mph - N/A   Clear
5:15 PM 48.2 °F - 26.6 °F 43% 30.24 in 10.0 mi West 12.7 mph - N/A   Clear
5:35 PM 46.4 °F 41.1 °F 26.6 °F 46% 30.25 in 10.0 mi West 11.5 mph - N/A   Clear
5:55 PM 44.6 °F 38.4 °F 28.4 °F 53% 30.25 in 10.0 mi WNW 12.7 mph - N/A   Clear
6:15 PM 41.0 °F 34.7 °F 28.4 °F 61% 30.25 in 10.0 mi WNW 10.4 mph - N/A   Clear
6:35 PM 37.4 °F 33.8 °F 26.6 °F 65% 30.26 in 10.0 mi NNW 4.6 mph - N/A   Clear
7:15 PM 35.6 °F 30.7 °F 28.4 °F 75% 30.28 in 10.0 mi NNW 5.8 mph - N/A   Clear
7:35 PM 33.8 °F 26.4 °F 26.6 °F 75% 30.28 in 10.0 mi NNW 9.2 mph - N/A   Clear
7:55 PM 32.0 °F 24.8 °F 26.6 °F 80% 30.29 in 10.0 mi NNW 8.1 mph - N/A   Clear
8:15 PM 32.0 °F 24.2 °F 26.6 °F 80% 30.29 in 10.0 mi North 9.2 mph - N/A   Clear
8:35 PM 32.0 °F 24.8 °F 26.6 °F 80% 30.30 in 10.0 mi NW 8.1 mph - N/A   Clear
8:55 PM 32.0 °F 24.8 °F 26.6 °F 80% 30.30 in 10.0 mi NW 8.1 mph - N/A   Clear
9:15 PM 32.0 °F 24.8 °F 26.6 °F 80% 30.30 in 10.0 mi NW 8.1 mph - N/A   Clear
9:35 PM 32.0 °F - 26.6 °F 80% 30.30 in 10.0 mi Calm Calm - N/A   Clear
9:55 PM 32.0 °F 27.5 °F 26.6 °F 80% 30.30 in 10.0 mi NNW 4.6 mph - N/A   Clear
10:15 PM 32.0 °F 27.5 °F 26.6 °F 80% 30.30 in 10.0 mi WSW 4.6 mph - N/A   Clear
10:35 PM 32.0 °F 24.8 °F 26.6 °F 80% 30.31 in 10.0 mi WNW 8.1 mph - N/A   Clear
11:15 PM 30.2 °F 21.3 °F 24.8 °F 80% 30.30 in 10.0 mi NNW 10.4 mph - N/A   Clear
11:35 PM 32.0 °F 26.4 °F 24.8 °F 75% 30.31 in 10.0 mi WNW 5.8 mph - N/A   Clear
11:55 PM 32.0 °F 27.5 °F 24.8 °F 75% 30.31 in 10.0 mi NW 4.6 mph - N/A   Clear